Regional Weather Roundup
Issued by NWS

Home | Current Version | Previous Version | Graphics & Text | Print | Product List | Glossary On
Versions: 1 2 3 4 5 6 7 8 9 10 11 12 13 14 15 16 17 18 19 20 21 22 23 24 25 26 27
000
ASUS45 KCYS 241410
RWRWY

WYOMING REGIONAL WEATHER ROUNDUP
NATIONAL WEATHER SERVICE CHEYENNE WY
800 AM MDT TUE APR 24 2018

NOTE:  "FAIR" INDICATES FEW OR NO CLOUDS BELOW 12,000 FEET
WITH NO SIGNIFICANT WEATHER AND/OR OBSTRUCTIONS TO VISIBILITY.

WYZ001-241500-
YELLOWSTONE NATIONAL PARK

CITY           SKY/WX    TMP DP  RH WIND       PRES   REMARKS
LK YELLOWSTONE   N/A     24  14  65 MISG      30.46R
W YELLOWSTONE  NOT AVBL

$$
WYZ002>013-054>058-071-098>099-241500-
NORTHERN WYOMING

CITY           SKY/WX    TMP DP  RH WIND       PRES   REMARKS
JACKSON        CLOUDY    32  18  56 N15G22    30.40R WCI  22
CODY           FAIR      39  23  52 NW3       30.51R
GREYBULL       FAIR      34  31  88 SE3       30.51R
WORLAND        CLOUDY    33  30  88 CALM      30.50R
SHERIDAN       CLOUDY    39  33  79 CALM      30.51R
BUFFALO        CLOUDY    36  26  67 NW5       30.50S WCI  32
GILLETTE       CLOUDY    32  30  92 W9        30.49R WCI  24
HULETT         LGT SNOW  32  32 100 CALM      30.50R
NEWCASTLE      PTSUNNY   34  27  75 NW14G23   30.45R WCI  24

$$
WYZ014>020-022>026-101>103-241500-
CENTRAL WYOMING

CITY           SKY/WX    TMP DP  RH WIND       PRES   REMARKS
BIG PINEY      CLOUDY    29  22  75 SW14      30.42R WCI  18
PINEDALE       LGT SNOW  28  23  80 W7        30.42R WCI  21
DUBOIS         CLOUDY    27  23  86 SE10      30.42S WCI  17
LANDER         MIX PCPN  32  24  72 CALM      30.48R
RIVERTON       CLOUDY    32  23  69 E8        30.48R WCI  25
CASPER         CLOUDY    32  26  78 NE14      30.48R WCI  22
DOUGLAS        CLOUDY    33  27  78 N12       30.48R WCI  24

$$
WYZ021-027>030-104>119-241500-
SOUTHERN WYOMING

CITY           SKY/WX    TMP DP  RH WIND       PRES   REMARKS
EVANSTON       CLOUDY    31  25  78 NE15      30.36R WCI  20
KEMMERER       CLOUDY    32  23  69 NE8G17    30.40R WCI  25
ROCK SPRINGS   CLOUDY    30  22  72 NE13      30.41R WCI  20
DIXON          FAIR      35  24  66 NE17G23   30.36S WCI  24
RAWLINS        CLOUDY    29  23  78 NE13      30.42R WCI  19
SARATOGA       CLOUDY    32  23  69 N9G16     30.40R WCI  24
LARAMIE        CLOUDY    28  22  78 N15       30.37R WCI  16
CHEYENNE       CLOUDY    30  26  85 MISG      30.38R
TORRINGTON     CLOUDY    36  30  79 N15G28    30.43R WCI  27
PINE BLUFFS    CLOUDY    32  32 100 N20G26    30.40R WCI  20

$$




USA.gov is the U.S. government's official web portal to all federal, state and local government web resources and services.